| time (UTC) | temp F | wind direction | speed MPH | gust MPH | rain 1hr in | rain 24hr in | rain mn in | humidity % | barometer mb |
| 20260505113517 | 32 | 253 | 1.0 | 2.0 | 0.00 | 0.00 | 0.00 | 91 | 1014.3 |
| 20260505112516 | 32 | 220 | 2.0 | 3.0 | 0.00 | 0.00 | 0.00 | 92 | 1014.2 |
| 20260505111540 | 33 | 206 | 1.0 | 3.0 | 0.00 | 0.00 | 0.00 | 89 | 1014.2 |
| 20260505110517 | 33 | 293 | 1.0 | 2.0 | 0.00 | 0.00 | 0.00 | 92 | 1014.2 |
| 20260505101517 | 33 | 321 | 1.0 | 2.0 | 0.00 | 0.00 | 0.00 | 93 | 1014.0 |
| 20260505100518 | 35 | 271 | 1.0 | 4.0 | 0.00 | 0.00 | 0.00 | 88 | 1013.9 |
| 20260505095518 | 34 | 353 | 1.0 | 3.0 | 0.00 | 0.00 | 0.00 | 92 | 1014.0 |
| 20260505094522 | 34 | 309 | 1.0 | 2.0 | 0.00 | 0.00 | 0.00 | 92 | 1013.7 |
| 20260505093518 | 34 | 336 | 1.0 | 3.0 | 0.00 | 0.00 | 0.00 | 88 | 1013.7 |
| 20260505092518 | 35 | 75 | 1.0 | 3.0 | 0.00 | 0.00 | 0.00 | 89 | 1013.8 |
| 20260505091539 | 36 | 357 | 2.0 | 4.0 | 0.00 | 0.00 | 0.00 | 84 | 1013.8 |
| 20260505090519 | 35 | 240 | 2.0 | 5.0 | 0.00 | 0.00 | 0.00 | 89 | 1013.8 |
| 20260505085519 | 35 | 351 | 1.0 | 2.0 | 0.00 | 0.00 | 0.00 | 86 | 1013.7 |
| 20260505084539 | 36 | 337 | 2.0 | 3.0 | 0.00 | 0.00 | 0.00 | 85 | 1013.7 |
| 20260505083539 | 37 | 22 | 1.0 | 3.0 | 0.00 | 0.00 | 0.00 | 83 | 1013.7 |
| 20260505082519 | 36 | 240 | 1.0 | 3.0 | 0.00 | 0.00 | 0.00 | 84 | 1013.8 |
| 20260505081540 | 37 | 85 | 1.0 | 4.0 | 0.00 | 0.00 | 0.00 | 81 | 1013.9 |
| 20260505080520 | 38 | 31 | 1.0 | 3.0 | 0.00 | 0.00 | 0.00 | 80 | 1013.9 |
| 20260505075517 | 39 | 332 | 1.0 | 2.0 | 0.00 | 0.00 | 0.00 | 77 | 1013.9 |
| 20260505074517 | 40 | 307 | 1.0 | 2.0 | 0.00 | 0.00 | 0.00 | 75 | 1013.9 |
| 20260505073517 | 40 | 13 | 1.0 | 4.0 | 0.00 | 0.00 | 0.00 | 74 | 1013.9 |
| 20260505072517 | 41 | 354 | 2.0 | 3.0 | 0.00 | 0.00 | 0.00 | 72 | 1013.9 |
| 20260505071517 | 42 | 1 | 1.0 | 4.0 | 0.00 | 0.00 | 0.00 | 69 | 1014.0 |
| 20260505070518 | 43 | 29 | 2.0 | 4.0 | 0.00 | 0.00 | 0.00 | 68 | 1014.0 |
| 20260505065538 | 45 | 255 | 2.0 | 5.0 | 0.00 | 0.00 | 0.00 | 60 | 1013.9 |
| 20260505064538 | 47 | 211 | 3.0 | 6.0 | 0.00 | 0.00 | 0.00 | 58 | 1013.8 |
| 20260505063521 | 47 | 206 | 4.0 | 8.0 | 0.00 | 0.00 | 0.00 | 53 | 1013.7 |
| 20260505062519 | 48 | 182 | 4.0 | 8.0 | 0.00 | 0.00 | 0.00 | 49 | 1013.7 |
| 20260505061539 | 49 | 207 | 5.0 | 9.0 | 0.00 | 0.00 | 0.00 | 49 | 1013.6 |
| 20260505060518 | 49 | 182 | 7.0 | 11.0 | 0.00 | 0.00 | 0.00 | 50 | 1013.5 |
| 20260505055519 | 49 | 178 | 5.0 | 9.0 | 0.00 | 0.00 | 0.00 | 51 | 1013.5 |
| 20260505054519 | 49 | 178 | 4.0 | 9.0 | 0.00 | 0.00 | 0.00 | 52 | 1013.3 |
| 20260505053519 | 49 | 197 | 5.0 | 9.0 | 0.00 | 0.00 | 0.00 | 52 | 1013.3 |
| 20260505052520 | 49 | 191 | 5.0 | 9.0 | 0.00 | 0.00 | 0.00 | 53 | 1013.2 |
| 20260505051520 | 50 | 180 | 5.0 | 8.0 | 0.00 | 0.00 | 0.00 | 52 | 1013.2 |
| 20260505050519 | 50 | 171 | 7.0 | 11.0 | 0.00 | 0.00 | 0.00 | 52 | 1013.2 |
| 20260505041518 | 52 | 185 | 7.0 | 16.0 | 0.00 | 0.00 | 0.00 | 49 | 1012.8 |
| 20260505040517 | 52 | 185 | 7.0 | 10.0 | 0.00 | 0.00 | 0.00 | 49 | 1012.7 |
| 20260505035517 | 53 | 181 | 8.0 | 15.0 | 0.00 | 0.00 | 0.00 | 49 | 1012.6 |
| 20260505034518 | 53 | 169 | 7.0 | 12.0 | 0.00 | 0.00 | 0.00 | 49 | 1012.4 |
| 20260505033538 | 53 | 167 | 9.0 | 14.0 | 0.00 | 0.00 | 0.00 | 49 | 1012.3 |
| 20260505032518 | 54 | 166 | 6.0 | 13.0 | 0.00 | 0.00 | 0.00 | 49 | 1012.1 |
| 20260505031518 | 54 | 169 | 6.0 | 10.0 | 0.00 | 0.00 | 0.00 | 48 | 1011.9 |
| 20260505030519 | 55 | 170 | 4.0 | 12.0 | 0.00 | 0.00 | 0.00 | 48 | 1011.8 |
| 20260505025519 | 55 | 184 | 6.0 | 9.0 | 0.00 | 0.00 | 0.00 | 47 | 1011.6 |
| 20260505024539 | 56 | 188 | 5.0 | 9.0 | 0.00 | 0.00 | 0.00 | 47 | 1011.5 |
| 20260505023519 | 56 | 187 | 6.0 | 10.0 | 0.00 | 0.00 | 0.00 | 45 | 1011.3 |
| 20260505022519 | 57 | 166 | 4.0 | 8.0 | 0.00 | 0.00 | 0.00 | 45 | 1011.1 |
| 20260505021519 | 57 | 173 | 8.0 | 12.0 | 0.00 | 0.00 | 0.00 | 43 | 1010.9 |
| 20260505020539 | 58 | 168 | 8.0 | 12.0 | 0.00 | 0.00 | 0.00 | 43 | 1010.7 |
| 20260505015517 | 58 | 157 | 6.0 | 12.0 | 0.00 | 0.00 | 0.00 | 43 | 1010.5 |
| 20260505014520 | 59 | 153 | 7.0 | 10.0 | 0.00 | 0.00 | 0.00 | 42 | 1010.4 |
| 20260505013520 | 60 | 152 | 6.0 | 10.0 | 0.00 | 0.00 | 0.00 | 40 | 1010.3 |
| 20260505012520 | 61 | 180 | 6.0 | 12.0 | 0.00 | 0.00 | 0.00 | 41 | 1010.1 |
| 20260505011517 | 61 | 172 | 4.0 | 8.0 | 0.00 | 0.00 | 0.00 | 40 | 1010.1 |
| 20260505010518 | 61 | 162 | 4.0 | 8.0 | 0.00 | 0.00 | 0.00 | 39 | 1010.0 |
| 20260505005518 | 61 | 159 | 6.0 | 11.0 | 0.00 | 0.00 | 0.00 | 39 | 1010.0 |
| 20260505004521 | 62 | 183 | 4.0 | 8.0 | 0.00 | 0.00 | 0.00 | 39 | 1009.9 |
| 20260505003518 | 62 | 182 | 5.0 | 9.0 | 0.00 | 0.00 | 0.00 | 39 | 1010.0 |
| 20260505002558 | 62 | 133 | 4.0 | 9.0 | 0.00 | 0.00 | 0.00 | 40 | 1010.0 |
| 20260505001518 | 62 | 137 | 4.0 | 10.0 | 0.00 | 0.00 | 0.00 | 40 | 1009.9 |
| 20260505000519 | 62 | 166 | 7.0 | 12.0 | 0.00 | 0.00 | 0.00 | 39 | 1009.9 |
| 20260504235518 | 62 | 148 | 5.0 | 9.0 | 0.00 | 0.00 | 0.00 | 40 | 1009.8 |
| 20260504234519 | 62 | 177 | 4.0 | 8.0 | 0.00 | 0.00 | 0.00 | 41 | 1009.7 |
| 20260504233516 | 62 | 145 | 4.0 | 8.0 | 0.00 | 0.00 | 0.00 | 42 | 1009.7 |
| 20260504232516 | 63 | 165 | 6.0 | 10.0 | 0.00 | 0.00 | 0.00 | 41 | 1009.6 |
| 20260504231520 | 63 | 215 | 5.0 | 10.0 | 0.00 | 0.00 | 0.00 | 42 | 1009.6 |
| 20260504230520 | 63 | 188 | 6.0 | 13.0 | 0.00 | 0.00 | 0.00 | 41 | 1009.7 |
| 20260504225520 | 62 | 200 | 4.0 | 8.0 | 0.00 | 0.00 | 0.00 | 41 | 1009.6 |
| 20260504224540 | 63 | 189 | 6.0 | 10.0 | 0.00 | 0.00 | 0.00 | 42 | 1009.6 |
| 20260504223517 | 62 | 196 | 6.0 | 9.0 | 0.00 | 0.00 | 0.00 | 43 | 1009.5 |
| 20260504222521 | 62 | 184 | 5.0 | 11.0 | 0.00 | 0.00 | 0.00 | 42 | 1009.6 |
| 20260504221520 | 62 | 198 | 5.0 | 9.0 | 0.00 | 0.00 | 0.00 | 42 | 1009.6 |
| 20260504220601 | 62 | 220 | 6.0 | 12.0 | 0.00 | 0.00 | 0.00 | 42 | 1009.6 |
| 20260504215518 | 62 | 226 | 5.0 | 12.0 | 0.00 | 0.00 | 0.00 | 42 | 1009.7 |
| 20260504214518 | 62 | 204 | 6.0 | 11.0 | 0.00 | 0.00 | 0.00 | 43 | 1009.8 |
| 20260504213518 | 63 | 189 | 6.0 | 13.0 | 0.00 | 0.00 | 0.00 | 42 | 1009.8 |
| 20260504212521 | 62 | 156 | 6.0 | 9.0 | 0.00 | 0.00 | 0.00 | 43 | 1009.8 |
| 20260504211518 | 63 | 204 | 5.0 | 9.0 | 0.00 | 0.00 | 0.00 | 43 | 1009.8 |
| 20260504210519 | 63 | 206 | 6.0 | 13.0 | 0.00 | 0.00 | 0.00 | 42 | 1009.8 |
| 20260504205519 | 63 | 224 | 3.0 | 6.0 | 0.00 | 0.00 | 0.00 | 43 | 1009.9 |
| 20260504204520 | 63 | 175 | 4.0 | 9.0 | 0.00 | 0.00 | 0.00 | 43 | 1009.8 |
| 20260504203519 | 64 | 212 | 5.0 | 9.0 | 0.00 | 0.00 | 0.00 | 42 | 1009.8 |
| 20260504202519 | 63 | 181 | 7.0 | 13.0 | 0.00 | 0.00 | 0.00 | 42 | 1009.9 |
| 20260504201540 | 63 | 213 | 4.0 | 9.0 | 0.00 | 0.00 | 0.00 | 43 | 1009.9 |
| 20260504200520 | 62 | 205 | 6.0 | 13.0 | 0.00 | 0.00 | 0.00 | 43 | 1009.9 |
| 20260504195516 | 62 | 236 | 5.0 | 9.0 | 0.00 | 0.00 | 0.00 | 43 | 1009.9 |
| 20260504194537 | 61 | 144 | 5.0 | 10.0 | 0.00 | 0.00 | 0.00 | 43 | 1010.1 |
| 20260504193537 | 62 | 200 | 4.0 | 9.0 | 0.00 | 0.00 | 0.00 | 43 | 1010.1 |
| 20260504192517 | 62 | 220 | 5.0 | 9.0 | 0.00 | 0.00 | 0.00 | 44 | 1010.2 |
| 20260504191517 | 61 | 200 | 2.0 | 5.0 | 0.00 | 0.00 | 0.00 | 42 | 1010.3 |
| 20260504190518 | 61 | 155 | 6.0 | 10.0 | 0.00 | 0.00 | 0.00 | 44 | 1010.5 |
| 20260504185518 | 62 | 181 | 5.0 | 9.0 | 0.00 | 0.00 | 0.00 | 44 | 1010.6 |
| 20260504184521 | 61 | 208 | 3.0 | 10.0 | 0.00 | 0.00 | 0.00 | 44 | 1010.7 |
| 20260504183538 | 61 | 215 | 5.0 | 10.0 | 0.00 | 0.00 | 0.00 | 44 | 1010.7 |
| 20260504182538 | 60 | 188 | 5.0 | 9.0 | 0.00 | 0.00 | 0.00 | 45 | 1010.9 |
| 20260504181518 | 60 | 196 | 6.0 | 11.0 | 0.00 | 0.00 | 0.00 | 45 | 1010.9 |
| 20260504180519 | 59 | 185 | 4.0 | 8.0 | 0.00 | 0.00 | 0.00 | 46 | 1011.1 |
| 20260504175518 | 59 | 188 | 5.0 | 10.0 | 0.00 | 0.00 | 0.00 | 45 | 1011.2 |
| 20260504174519 | 59 | 244 | 6.0 | 11.0 | 0.00 | 0.00 | 0.00 | 45 | 1011.2 |
| 20260504173519 | 59 | 207 | 5.0 | 10.0 | 0.00 | 0.00 | 0.00 | 46 | 1011.4 |
| 20260504172519 | 58 | 166 | 6.0 | 11.0 | 0.00 | 0.00 | 0.00 | 46 | 1011.5 |
| 20260504171540 | 57 | 173 | 5.0 | 12.0 | 0.00 | 0.00 | 0.00 | 45 | 1011.6 |
| 20260504170520 | 57 | 214 | 4.0 | 8.0 | 0.00 | 0.00 | 0.00 | 46 | 1011.7 |
| 20260504150538 | 52 | 148 | 7.0 | 13.0 | 0.00 | 0.00 | 0.00 | 50 | 1012.7 |
| 20260504140520 | 51 | 187 | 5.0 | 11.0 | 0.00 | 0.00 | 0.00 | 51 | 1012.4 |
| 20260504130520 | 50 | 162 | 5.0 | 7.0 | 0.00 | 0.00 | 0.00 | 53 | 1011.9 |